Temperature
28 28 27 26 26 26 26 27 27 27 27 26 26 26 26 26 26 26 25 24 24 23 23 22 21 21 20 20 19 19 18 18 18 17 17 17 16 16 16 16 16 16 15 15
27 28 27 25 25 25 25 26 27 28 27 27 26 25 25 26 26 25 25 24 24 23 22 22 22 21 21 20 20 19 19 18 18 17 17 17 16 16 16 16 16 15 15 15
25 27 26 25 26 26 26 27 28 27 27 27 26 26 25 25 25 25 25 25 24 23 22 22 22 21 21 21 20 20 19 19 18 18 17 17 17 16 16 16 16 16 15 15
24 24 23 26 27 27 27 27 28 28 28 27 26 25 25 25 24 24 24 24 24 23 23 22 22 21 21 20 20 20 19 19 18 18 17 17 16 16 16 16 16 16 15 15
23 23 24 25 25 26 25 25 27 27 27 26 26 25 24 24 24 23 24 23 23 23 23 22 22 21 21 20 20 19 19 19 18 18 17 17 16 16 16 16 16 16 15 15
23 23 23 24 24 24 25 24 25 26 26 25 26 24 22 22 22 22 22 22 22 22 22 22 22 21 21 20 20 19 19 18 18 18 17 17 17 16 16 16 16 16 15 15
23 22 23 23 23 24 22 22 24 25 24 24 23 23 22 22 21 21 21 22 22 22 21 21 21 21 20 20 19 19 19 18 18 18 17 17 17 16 16 16 15 15 15 15
21 21 21 21 21 21 20 21 22 23 23 22 22 21 21 20 20 20 20 21 21 21 20 20 20 20 20 19 19 19 18 18 18 17 17 16 16 16 15 15 15 15 15 15
20 20 19 19 19 19 20 20 21 22 22 22 21 21 20 20 19 19 19 19 19 19 19 19 19 19 19 18 18 18 18 17 17 17 16 16 16 15 15 15 14 14 14 14
19 19 19 18 18 19 20 20 21 22 21 21 20 20 19 18 18 18 18 18 18 18 18 18 18 18 17 17 17 17 17 16 16 16 16 16 15 15 15 14 14 14 14 14
18 18 18 18 18 19 19 20 20 20 20 19 19 18 18 17 17 17 17 17 17 17 17 16 16 16 16 16 16 16 16 16 16 15 15 15 15 15 14 14 14 14 14 14
18 18 18 18 18 18 19 19 18 19 18 18 18 17 17 16 16 16 16 16 16 16 15 15 15 15 15 15 15 15 15 15 15 15 15 14 14 14 14 14 14 14 14 14
18 18 18 17 17 18 18 18 18 18 17 17 17 16 16 15 15 15 15 15 15 15 14 14 14 14 14 14 14 14 14 14 14 14 14 14 14 14 14 14 14 14 13 13
18 18 18 17 17 17 17 17 17 17 17 16 16 15 15 15 15 14 14 14 14 14 14 14 14 13 13 13 13 13 13 14 14 13 13 13 13 13 13 13 13 13 13 13
17 17 17 17 16 16 16 16 16 16 16 15 15 15 15 14 14 14 14 14 14 13 13 13 13 13 13 13 13 13 13 13 13 13 13 13 13 13 13 13 13 13 13 12
17 17 16 16 16 16 16 16 15 15 15 15 14 14 14 14 14 13 13 13 13 13 13 12 12 12 12 12 12 12 13 13 13 13 13 13 13 13 13 12 12 12 12 12
16 16 16 15 15 15 15 14 14 14 14 14 14 14 14 14 13 13 13 13 13 12 12 12 12 12 12 12 12 12 12 12 12 12 12 12 12 12 12 12 12 11 11 11
15 15 15 15 14 14 14 14 13 13 13 13 14 13 13 13 13 12 12 12 12 12 12 12 12 12 11 11 11 12 12 12 12 12 12 12 12 11 11 11 11 11 11 10
14 14 14 14 14 13 13 13 13 13 13 13 13 13 13 12 12 12 12 12 12 12 11 11 11 11 11 11 11 11 11 11 12 12 11 11 11 11 11 10 10 10 10 10
13 13 13 13 13 13 13 13 13 13 12 12 12 12 12 12 12 12 12 12 11 11 11 11 11 11 11 11 11 11 11 11 11 11 11 11 10 10 10 10 10 9 9 9
13 13 13 13 13 13 13 13 13 12 12 12 12 12 12 12 12 12 12 11 11 11 11 11 10 10 10 10 10 10 10 10 10 10 10 10 10 9 9 9 9 9 8 8
12 12 12 12 12 12 12 12 12 12 12 12 12 12 11 11 11 11 11 11 11 10 10 10 10 10 9 9 9 9 9 9 9 9 9 9 9 8 8 8 8 8 7 7
12 12 12 12 12 12 12 12 12 12 12 12 11 11 11 11 11 11 11 10 10 10 10 9 9 9 9 9 9 9 8 8 8 8 8 8 8 7 7 7 7 6 6 6
11 11 12 12 12 12 12 12 11 11 11 11 11 11 11 11 11 10 10 10 10 9 9 9 9 8 8 8 8 8 8 8 7 7 7 7 7 6 6 6 6 5 5 5
11 11 11 11 11 11 11 11 11 11 11 11 11 11 11 10 10 10 9 9 9 9 8 8 8 8 8 7 7 7 7 7 6 6 6 6 5 5 5 5 5 5 4 4
11 11 11 11 11 11 11 11 11 11 11 11 10 10 10 10 9 9 9 9 8 8 8 7 7 7 7 7 6 6 6 6 5 5 5 5 5 5 4 4 4 4 4 4
11 11 11 11 11 11 11 11 10 10 10 10 9 9 9 9 9 8 8 8 7 7 7 7 6 6 6 6 5 5 5 5 4 4 4 4 4 4 4 4 3 3 3 3
Wind_Speed
16 11 8 8 10 12 12 12 12 11 4 3 4 2 3 6 9 13 14 14 13 13 13 13 13 13 13 14 13 13 13 13 12 12 11 10 9 9 9 9 10 8 8 8
15 13 9 10 11 12 11 13 12 10 6 3 6 4 3 4 5 8 13 14 13 13 12 12 13 14 13 13 13 12 13 12 12 11 11 11 10 9 9 9 9 8 9 8
14 12 11 12 11 12 12 12 8 7 5 4 6 4 4 5 5 6 7 10 12 13 12 12 12 12 12 12 12 12 12 12 12 12 12 12 12 11 10 10 9 8 9 9
10 11 12 8 7 9 10 7 5 2 1 2 5 4 3 4 4 3 4 6 8 11 12 12 11 11 11 12 12 12 12 11 12 12 12 11 10 10 10 9 9 8 8 9
8 11 10 8 6 5 5 4 3 2 1 3 6 6 4 4 4 3 3 2 4 6 10 10 10 10 10 10 10 11 12 11 11 11 11 11 11 10 9 8 8 9 8 9
9 9 9 5 4 7 4 2 3 3 2 3 3 3 4 6 6 5 4 4 5 5 5 7 8 8 9 8 8 8 8 8 8 10 10 11 10 9 8 8 8 8 8 9
11 10 5 5 6 5 1 1 4 5 6 7 7 7 6 8 8 7 6 6 7 7 6 6 7 8 7 6 5 6 6 5 5 6 7 7 7 6 6 8 8 8 8 8
6 7 3 8 6 2 1 3 4 5 9 11 10 10 10 9 7 7 7 8 7 8 8 6 6 7 6 5 4 4 5 5 6 6 6 6 5 6 6 7 8 9 8 8
1 1 3 6 5 3 3 3 3 5 9 10 10 10 10 10 9 10 10 9 8 8 8 7 7 6 5 3 3 4 3 3 4 5 4 4 5 5 5 5 6 6 6 7
1 2 4 7 5 4 4 3 4 7 9 10 10 10 10 10 10 10 10 9 8 9 9 8 7 7 6 5 3 3 3 2 2 3 3 3 3 5 5 5 5 5 4 5
1 2 4 5 4 4 5 7 7 10 11 11 11 12 11 9 9 9 9 9 9 9 9 10 9 8 7 6 5 4 3 2 2 2 3 3 4 3 4 3 4 4 4 4
2 3 3 4 6 6 8 9 8 11 13 12 12 12 11 10 10 9 9 9 9 10 9 9 9 8 7 6 5 4 3 2 1 0 1 1 2 3 4 5 5 6 6 5
3 4 5 6 8 9 8 10 11 13 13 13 13 12 12 10 10 10 9 8 8 9 8 8 8 8 7 6 5 4 3 3 2 2 2 2 2 3 4 5 7 8 10 10
5 6 7 7 9 9 11 11 12 14 13 13 12 12 11 10 10 9 8 8 8 8 8 8 7 6 6 5 4 3 3 1 1 2 2 3 3 4 4 4 3 4 7 11
7 7 8 8 10 10 11 11 11 13 13 12 11 11 10 10 9 9 8 8 8 8 8 7 7 6 5 5 4 4 4 3 2 3 3 3 4 4 4 4 4 4 4 4
8 9 10 11 12 11 12 12 12 11 10 10 9 9 9 9 9 9 9 8 8 8 7 6 6 6 6 6 5 4 2 4 4 4 5 4 4 5 5 5 5 5 5 4
9 10 11 11 11 11 11 11 10 9 9 9 9 9 9 8 8 8 7 7 7 6 6 6 6 5 5 5 6 6 5 4 4 5 5 5 5 5 6 6 6 6 5 5
11 11 11 11 11 11 11 10 9 8 8 8 8 8 8 7 7 6 6 5 5 5 5 6 6 6 5 6 6 7 7 6 5 6 5 5 5 6 6 6 7 8 7 6
14 13 13 13 12 10 9 9 9 8 7 7 7 7 7 6 5 5 4 4 3 4 5 5 5 6 5 6 7 6 7 8 7 6 6 5 5 5 6 6 7 7 8 8
13 12 11 11 10 9 8 7 6 5 5 5 5 5 4 4 4 4 4 4 4 4 4 5 5 5 6 7 8 8 8 8 8 8 7 7 7 6 7 7 8 8 8 8
11 10 9 8 7 7 6 5 4 5 4 4 4 4 4 4 4 4 3 3 3 5 5 4 3 5 6 8 9 8 8 8 8 7 7 7 7 7 7 7 8 8 8 8
8 7 7 7 6 6 6 5 5 5 4 4 4 4 4 4 5 4 3 2 2 4 5 5 4 6 8 10 8 8 8 8 8 8 7 8 7 7 8 8 8 8 8 8
5 5 5 5 5 5 4 4 4 5 5 5 4 5 5 5 5 5 4 3 3 4 5 5 4 4 8 8 8 7 8 8 8 7 7 7 8 8 8 9 8 8 9 9
3 3 3 3 3 3 3 3 4 4 4 4 3 3 4 4 4 5 4 3 3 4 5 3 3 6 8 7 7 7 7 7 7 7 8 8 8 8 8 8 8 8 9 10
2 3 3 3 3 3 3 3 3 3 4 4 5 5 5 4 5 5 5 5 4 4 5 3 5 7 7 7 7 6 6 6 7 7 7 8 8 8 8 8 8 9 9 9
2 2 3 3 3 3 4 4 4 5 5 5 5 6 6 6 6 5 5 5 6 5 5 5 6 5 5 5 6 7 6 6 6 6 7 7 8 8 8 9 11 9 9 9
2 1 2 3 3 4 5 5 5 5 5 6 6 6 7 7 6 7 7 6 6 6 6 6 6 7 7 6 6 6 6 6 7 7 7 7 7 7 8 9 9 9 9 9
Wind_Direction
261 243 234 256 270 278 277 270 273 281 268 220 143 180 165 152 165 164 167 172 171 168 172 174 177 178 181 183 184 183 181 186 185 186 185 187 187 184 187 193 200 196 199 205
265 255 245 239 242 242 251 261 263 271 270 162 133 161 153 133 160 180 176 176 175 172 174 177 180 182 184 183 182 179 183 187 183 185 187 190 191 190 190 196 205 199 202 209
269 268 267 256 245 237 239 248 254 260 266 130 138 139 133 151 178 195 179 177 176 177 179 181 180 180 182 184 182 182 185 187 184 187 191 193 197 194 196 198 203 207 206 211
274 278 265 266 275 257 247 262 271 269 351 108 112 110 119 139 150 177 184 182 172 176 176 180 182 178 180 184 184 185 187 190 187 188 193 191 195 195 195 197 202 209 214 217
257 262 264 272 287 298 292 284 338 16 18 94 118 121 81 57 101 137 144 149 150 157 172 169 173 174 175 183 187 190 192 194 191 189 194 193 197 199 195 195 202 209 215 221
241 253 259 287 324 324 296 232 7 44 57 110 124 114 82 47 56 75 91 101 114 127 126 142 155 154 160 172 175 183 188 186 190 186 193 195 196 198 197 198 205 212 219 222
244 249 260 331 331 349 290 248 18 60 71 73 71 84 89 70 56 55 69 86 93 101 102 115 131 135 146 157 169 173 168 158 166 173 184 193 191 193 197 204 212 218 224 222
257 253 264 360 5 35 48 10 10 61 79 81 83 85 80 75 68 63 67 70 83 91 94 92 107 123 135 145 150 150 153 155 158 162 185 192 185 194 199 209 215 221 227 234
240 221 45 25 31 30 55 45 6 73 88 94 92 86 80 74 68 61 59 65 72 84 86 82 84 95 104 104 114 122 133 149 158 164 176 181 181 192 202 212 225 232 233 238
101 60 46 36 21 8 22 47 40 70 77 83 87 84 80 74 70 64 57 60 67 74 79 71 70 74 70 64 75 110 128 135 143 163 180 191 193 203 213 217 223 235 243 247
103 109 63 33 23 30 49 54 61 75 75 78 83 81 80 76 73 68 63 59 62 69 73 73 66 61 58 51 52 61 75 99 156 190 200 199 202 210 216 216 208 222 247 259
29 64 77 72 58 51 59 59 57 76 78 75 79 80 77 74 72 70 67 64 64 64 66 70 68 63 55 49 51 52 55 39 3 278 193 233 227 231 226 230 219 226 237 251
55 62 85 84 68 61 70 76 74 76 79 78 77 77 77 74 70 68 67 68 70 69 67 67 68 62 53 49 51 51 41 27 360 346 340 317 295 273 268 252 244 248 247 247
71 84 86 81 83 78 77 77 80 81 78 77 78 78 78 75 71 67 64 66 68 69 68 66 61 56 48 44 38 20 3 19 331 330 321 300 287 278 274 274 270 266 251 243
62 78 93 91 93 92 89 84 79 79 77 74 75 77 77 75 72 70 65 62 62 61 58 58 52 42 33 29 21 352 336 336 331 321 306 299 300 300 302 302 300 297 300 277
89 94 96 93 88 84 82 80 77 76 77 77 75 77 78 78 74 69 62 57 53 51 47 45 40 31 26 15 0 335 323 333 325 312 304 308 313 314 314 314 311 310 311 315
90 90 93 94 90 84 80 77 75 71 69 68 65 66 67 66 64 62 59 57 55 48 45 43 36 27 13 2 346 339 341 338 311 309 319 329 330 326 324 319 315 313 311 314
88 88 89 90 88 83 78 75 72 66 59 58 60 60 60 58 54 49 43 42 44 42 42 48 31 6 360 9 357 341 331 327 318 316 320 323 325 320 315 313 312 312 311 309
86 85 84 82 81 77 73 69 66 61 55 51 53 53 51 48 45 36 22 14 21 34 39 34 4 340 349 19 355 327 324 323 322 323 321 317 306 308 313 312 313 317 318 318
82 80 79 77 77 77 76 75 71 65 58 53 47 40 34 25 17 10 10 10 19 28 14 10 344 343 3 11 345 322 319 323 326 326 323 321 322 323 322 323 324 322 318 315
76 75 74 71 68 63 59 56 58 57 50 38 28 19 15 6 356 353 348 358 44 22 349 339 356 8 4 343 318 320 325 326 324 325 326 327 327 327 327 326 324 322 320 320
65 59 56 55 51 46 40 30 26 24 22 14 7 2 349 342 339 342 348 7 56 22 346 354 23 23 355 331 322 324 327 327 327 330 331 331 331 329 327 326 325 325 326 327
63 57 50 40 34 23 14 10 9 3 358 353 353 353 347 339 330 328 337 12 21 6 346 354 23 352 328 320 320 325 328 329 331 332 333 334 332 329 329 329 331 333 334 332
44 31 25 16 7 357 1 359 345 335 330 328 340 352 333 327 336 342 359 26 22 348 340 355 314 309 304 308 318 324 327 334 339 337 336 335 337 340 338 335 333 332 331 328
14 357 2 354 345 345 339 322 317 325 334 350 349 355 351 350 343 349 355 351 360 331 326 320 309 305 308 324 329 336 345 357 353 343 343 341 337 334 333 334 335 332 330 328
342 327 346 332 332 322 327 346 353 358 357 356 357 0 356 352 348 350 351 352 358 349 336 330 332 326 333 333 334 341 345 349 350 353 354 347 344 345 345 344 339 336 333 332
324 327 312 323 344 355 355 353 350 355 357 356 349 345 345 351 357 357 351 348 350 352 353 352 352 357 356 356 2 5 3 1 358 357 357 352 348 348 346 343 340 338 337 336
Height
1436 1436 1440 1445 1447 1446 1448 1448 1451 1445 1444 1443 1441 1444 1445 1447 1450 1453 1458 1463 1467 1473 1477 1482 1487 1491 1495 1499 1503 1507 1510 1513 1515 1518 1521 1523 1526 1528 1530 1532 1533 1535 1536 1538
1438 1433 1435 1444 1445 1443 1445 1443 1440 1438 1440 1436 1438 1442 1444 1446 1450 1453 1456 1459 1464 1469 1474 1478 1483 1487 1491 1495 1499 1503 1506 1509 1512 1515 1517 1519 1522 1524 1526 1528 1530 1532 1533 1534
1445 1434 1439 1447 1440 1439 1439 1434 1433 1439 1435 1433 1438 1440 1443 1445 1449 1451 1453 1456 1460 1465 1469 1474 1478 1482 1487 1491 1495 1498 1501 1505 1508 1510 1513 1515 1517 1520 1521 1524 1526 1527 1529 1530
1448 1447 1459 1439 1427 1428 1430 1429 1427 1428 1430 1432 1436 1440 1443 1445 1447 1449 1452 1454 1457 1461 1465 1470 1475 1479 1484 1488 1491 1494 1497 1500 1503 1505 1508 1510 1513 1515 1517 1519 1521 1523 1524 1526
1453 1455 1448 1437 1430 1430 1432 1433 1427 1428 1430 1432 1435 1439 1444 1445 1446 1448 1450 1452 1455 1459 1463 1466 1470 1475 1479 1484 1487 1489 1492 1495 1498 1501 1504 1506 1508 1510 1512 1514 1516 1517 1519 1521
1446 1454 1455 1440 1431 1432 1431 1439 1431 1430 1431 1434 1434 1441 1447 1447 1447 1448 1450 1452 1454 1457 1460 1463 1467 1471 1475 1479 1482 1484 1486 1489 1493 1496 1499 1501 1503 1505 1508 1509 1511 1512 1514 1515
1443 1447 1444 1439 1434 1433 1447 1446 1435 1432 1433 1435 1439 1444 1447 1447 1449 1450 1451 1453 1454 1456 1458 1461 1465 1468 1472 1475 1478 1480 1484 1486 1490 1492 1495 1497 1498 1501 1503 1505 1506 1507 1509 1509
1445 1452 1453 1442 1439 1443 1446 1440 1438 1435 1436 1439 1443 1446 1448 1451 1452 1453 1453 1454 1455 1456 1459 1461 1464 1467 1470 1473 1475 1478 1481 1484 1486 1488 1491 1493 1494 1496 1498 1500 1501 1502 1503 1504
1447 1451 1448 1446 1445 1444 1441 1440 1440 1439 1441 1442 1446 1449 1452 1454 1455 1456 1456 1457 1457 1458 1460 1463 1465 1467 1470 1472 1475 1476 1479 1481 1483 1485 1487 1489 1491 1493 1494 1496 1497 1498 1498 1498
1446 1447 1447 1447 1446 1446 1444 1444 1442 1442 1444 1445 1449 1452 1455 1456 1457 1458 1459 1460 1461 1461 1462 1465 1466 1468 1470 1472 1474 1475 1477 1479 1482 1483 1485 1487 1488 1489 1490 1491 1492 1493 1494 1494
1448 1449 1447 1449 1449 1447 1446 1445 1446 1446 1448 1450 1452 1455 1457 1459 1460 1461 1463 1464 1464 1465 1466 1467 1468 1470 1471 1473 1474 1475 1477 1478 1480 1481 1482 1484 1485 1485 1486 1487 1488 1489 1489 1490
1449 1449 1450 1452 1451 1451 1450 1450 1451 1451 1453 1455 1456 1458 1461 1463 1464 1465 1466 1467 1468 1468 1469 1470 1471 1472 1473 1474 1474 1475 1477 1478 1479 1481 1481 1482 1482 1483 1483 1484 1484 1484 1485 1485
1449 1449 1451 1452 1453 1453 1454 1455 1456 1456 1458 1460 1461 1463 1465 1466 1468 1469 1470 1470 1471 1472 1472 1473 1473 1474 1475 1475 1476 1477 1477 1478 1479 1480 1480 1480 1480 1480 1481 1480 1480 1480 1480 1480
1451 1452 1454 1456 1456 1457 1458 1459 1461 1461 1463 1464 1466 1467 1469 1470 1471 1472 1474 1474 1474 1475 1475 1475 1476 1477 1477 1477 1477 1478 1478 1478 1478 1479 1478 1478 1478 1478 1477 1477 1476 1475 1475 1475
1454 1455 1457 1459 1460 1461 1462 1464 1465 1466 1467 1469 1471 1472 1473 1474 1475 1476 1477 1477 1477 1478 1478 1478 1478 1479 1478 1478 1478 1478 1478 1478 1478 1477 1477 1476 1476 1475 1475 1474 1473 1472 1471 1470
1457 1458 1460 1462 1464 1465 1466 1467 1469 1471 1472 1473 1475 1476 1477 1478 1478 1479 1479 1480 1480 1480 1480 1480 1480 1480 1479 1479 1479 1479 1478 1477 1477 1476 1476 1475 1474 1473 1472 1471 1470 1469 1468 1467
1460 1462 1464 1466 1468 1469 1471 1472 1474 1475 1476 1476 1477 1478 1479 1480 1481 1481 1481 1482 1482 1482 1482 1482 1481 1481 1480 1480 1480 1479 1478 1477 1476 1475 1474 1473 1472 1471 1470 1468 1467 1465 1464 1463
1464 1466 1468 1469 1471 1473 1475 1476 1477 1479 1479 1480 1480 1481 1482 1483 1483 1483 1483 1483 1483 1483 1483 1482 1482 1481 1481 1480 1479 1478 1477 1476 1475 1474 1473 1471 1470 1468 1467 1466 1464 1462 1461 1459
1469 1470 1472 1474 1475 1477 1478 1480 1481 1482 1483 1483 1483 1483 1484 1485 1485 1484 1484 1484 1484 1484 1483 1483 1482 1481 1480 1479 1478 1477 1476 1475 1473 1472 1470 1469 1467 1465 1464 1462 1461 1459 1457 1455
1473 1475 1476 1478 1479 1480 1481 1482 1483 1484 1485 1485 1485 1485 1485 1485 1485 1485 1484 1484 1484 1483 1483 1482 1481 1480 1479 1477 1476 1475 1474 1472 1471 1469 1468 1466 1464 1462 1461 1459 1457 1455 1453 1450
1478 1479 1481 1482 1482 1483 1484 1485 1485 1486 1486 1486 1486 1486 1486 1486 1486 1485 1484 1484 1483 1483 1482 1481 1480 1479 1477 1476 1474 1473 1471 1470 1468 1467 1465 1463 1461 1459 1457 1456 1453 1451 1449 1446
1482 1483 1483 1484 1485 1485 1486 1486 1487 1487 1487 1487 1487 1487 1486 1486 1485 1484 1484 1483 1482 1481 1481 1480 1478 1477 1475 1474 1473 1471 1469 1468 1466 1464 1462 1460 1458 1456 1454 1452 1450 1447 1445 1442
1485 1486 1486 1486 1487 1487 1487 1487 1488 1488 1487 1487 1487 1486 1486 1485 1485 1484 1483 1482 1481 1480 1479 1478 1476 1474 1473 1471 1470 1468 1466 1465 1463 1461 1459 1457 1455 1453 1451 1448 1446 1443 1441 1438
1487 1487 1488 1488 1488 1488 1488 1488 1488 1488 1487 1487 1486 1485 1485 1484 1483 1482 1481 1480 1479 1478 1477 1475 1473 1472 1470 1469 1467 1465 1463 1461 1459 1458 1456 1454 1452 1450 1447 1445 1443 1439 1437 1434
1488 1488 1488 1488 1488 1488 1488 1487 1487 1486 1486 1485 1485 1484 1483 1483 1482 1481 1479 1478 1476 1475 1474 1472 1471 1469 1467 1466 1465 1463 1461 1458 1456 1455 1453 1451 1449 1446 1444 1442 1439 1436 1433 1430
1488 1488 1488 1488 1488 1488 1487 1487 1486 1486 1485 1485 1484 1483 1482 1481 1480 1479 1477 1476 1474 1472 1471 1470 1468 1466 1465 1463 1461 1460 1458 1456 1454 1452 1450 1448 1446 1443 1441 1438 1435 1432 1429 1426
1488 1488 1487 1487 1487 1487 1486 1486 1486 1485 1485 1484 1483 1482 1481 1479 1478 1476 1475 1473 1472 1470 1469 1467 1466 1464 1462 1461 1459 1457 1455 1453 1451 1449 1447 1445 1443 1440 1438 1435 1432 1429 1426 1423